[[{"header":{"parameterUnit":"m.s-1","parameterCategory":1,"la1":30.2991,"la2":30.254,"lo1":-89.0895,"lo2":-89.0444,"dy":0.0017,"dx":0.0017,"nx":28,"ny":28,"refTime":"2024-04-08T03:00:00:Z","depth":0,"parameterNumber":2,"parameterNumberName":"U-component_of_WINDS"},"data":[0,0,0,0,0,0,0,0,0,0,0,0,0,0,0,0,0,0,0,0,0,0,0,0,0,0,0,0,0,0,0,0,0,0,0,0,0,0,0,0,0,0,0,0,0,0,0,0,0,0,0,0,0,0,0,0,0,0,-6.3408,-6.3409,0,-6.3552,-6.3554,-6.3555,-6.3523,-6.352,-6.3517,-6.3515,-6.366,-6.3666,-6.3673,0,0,0,0,0,0,0,0,0,0,0,0,0,-6.3101,-6.3107,-6.3407,-6.3409,-6.3411,-6.3552,-6.3554,-6.3556,-6.3523,-6.352,-6.3517,-6.3514,-6.3658,-6.3666,-6.3673,0,0,0,0,0,0,0,0,0,0,0,0,0,-6.3239,-6.3109,-6.3407,-6.3412,-6.3414,-6.3551,-6.3554,-6.3556,-6.3524,-6.352,-6.3516,-6.3512,-6.3656,-6.3665,-6.3674,-6.3815,0,0,-6.3704,-6.3708,0,0,0,0,0,0,0,0,-6.3231,-6.325,-6.3409,-6.3412,-6.3414,-6.3515,-6.3499,-6.3643,-6.3525,-6.3482,-6.3515,-6.351,-6.3615,-6.3628,-6.3664,-6.3822,-6.3829,-6.3705,-6.3711,-6.3715,-6.3717,0,0,0,0,0,0,0,-6.3221,-6.3244,-6.3465,-6.3412,-6.3415,-6.3406,-6.3421,-6.3526,-6.357,-6.3486,-6.3484,-6.3501,-6.3616,-6.3655,-6.3667,-6.3831,-6.3704,-6.3713,-6.3719,-6.3723,-6.4111,-6.4115,0,0,0,0,0,0,-6.321,-6.3236,-6.346,-6.3469,-6.3311,-6.3415,-6.3432,-6.3487,-6.3568,-6.3577,-6.3505,-6.3499,-6.364,-6.3656,-6.3672,-6.3841,-6.3715,-6.3724,-6.3729,-6.4106,-6.4112,-6.4117,0,0,0,0,0,0,-6.3204,-6.323,-6.3454,-6.3352,-6.338,-6.3425,-6.3487,-6.3492,-6.3531,-6.3583,-6.359,-6.3537,-6.3638,-6.3658,-6.378,-6.3845,-6.3728,-6.3737,-6.4101,-6.4108,-6.4114,-6.4181,0,0,0,0,0,0,-6.3195,-6.3228,-6.3283,-6.3353,-6.3385,-6.3561,-6.3491,-6.3498,-6.3548,-6.3542,-6.3615,-6.3623,-6.3636,-6.3766,-6.3789,-6.3857,-6.3744,-6.4095,-6.4104,-6.4112,-6.4173,-6.4189,-6.4203,0,0,0,0,0,-6.3184,-6.3296,-6.3286,-6.3313,-6.3455,-6.3564,-6.3582,-6.3596,-6.3553,-6.3608,-6.3641,-6.3621,-6.3835,-6.3778,-6.3805,-6.3876,-6.4091,-6.4101,-6.4111,-6.4166,-6.4186,-6.4202,0,0,0,0,0,0,-6.323,-6.3305,-6.3295,-6.3433,-6.3493,-6.3559,-6.3628,-6.3617,-6.3689,-6.3681,-6.3694,-6.3711,-6.3834,-6.3868,-6.3803,-6.4016,-6.3957,-6.3973,-6.3989,-6.4008,-6.4023,-6.4011,-6.3752,0,0,0,0,0,-6.3257,-6.3341,-6.3401,-6.3517,-6.3547,-6.3583,-6.3631,-6.3637,-6.3699,-6.3724,-6.3766,-6.3826,-6.3907,-6.396,-6.4038,-6.4178,-6.4193,-6.424,-6.4255,-6.4267,-6.428,-6.4355,-6.4377,-6.415,-6.415,-6.415,0,0,-6.3312,-6.3363,-6.3415,-6.3527,-6.3574,-6.3659,-6.3604,-6.3697,-6.376,-6.3737,-6.3854,-6.3888,-6.3956,-6.4087,-6.4147,-6.4119,-6.4346,-6.428,-6.429,-6.4296,-6.4368,-6.4389,-6.4408,-6.4157,-6.4156,-6.4155,0,0,-6.3455,-6.3503,-6.3604,-6.3652,-6.3725,-6.3748,-6.3772,-6.3841,-6.3862,-6.398,-6.3964,-6.404,-6.4179,-6.4228,-6.4271,-6.4434,-6.4417,-6.4459,-6.4536,-6.461,-6.4627,-6.4643,-6.4699,-6.4719,-6.4472,-6.4473,-6.4473,0,-6.3513,-6.3642,-6.3657,-6.3751,-6.38,-6.3785,-6.3887,-6.3933,-6.4027,-6.4061,-6.4028,-6.4203,-6.4248,-6.439,-6.4429,-6.4466,-6.4492,-6.4449,-6.4624,-6.464,-6.4655,-6.4708,-6.4729,-6.4477,-6.4477,-6.4476,-6.4476,0,-6.3709,-6.3799,-6.3872,-6.3963,-6.4021,-6.4118,-6.4147,-6.4204,-6.4205,-6.4231,-6.4351,-6.4405,-6.4492,-6.4527,-6.4529,-6.4669,-6.4649,-6.4621,-6.456,-6.4681,-6.4731,-6.4752,-6.4483,-6.4482,-6.448,-6.4479,0,0,-6.3883,-6.3982,-6.4008,-6.4049,-6.4129,-6.4198,-6.4295,-6.4381,-6.4428,-6.4494,-6.4574,-6.4693,-6.4667,-6.4716,-6.4724,-6.4789,-6.4912,-6.4752,-6.4754,-6.4777,-6.5067,-6.5086,-6.511,-6.4902,-6.4906,-6.491,-6.5061,0,-6.4031,-6.4202,-6.4218,-6.4371,-6.4453,-6.444,-6.4525,-6.4582,-6.4609,-6.4682,-6.4713,-6.4796,-6.4756,-6.4786,-6.485,-6.4883,-6.497,-6.4873,-6.4975,-6.4978,-6.4955,-6.5137,-6.5157,-6.5297,-6.5081,-6.5084,-6.5087,0,-6.4226,-6.4298,-6.4459,-6.4526,-6.4561,-6.4636,-6.4716,-6.4787,-6.4852,-6.4867,-6.4923,-6.4922,-6.502,-6.4959,-6.5094,-6.5028,-6.5071,-6.5094,-6.51,-6.5107,-6.5037,-6.5146,-6.5342,-6.5362,-6.5118,-6.5116,-6.5113,0,-6.4333,-6.447,-6.4584,-6.462,-6.4702,-6.4755,-6.4792,-6.4853,-6.4903,-6.4974,-6.5007,-6.5088,-6.5131,-6.5194,-6.5214,-6.5168,-6.5348,-6.5289,-6.5361,-6.5361,-6.5397,-6.5394,-6.56,-6.543,-6.543,-6.5429,-6.5429,0,-6.4495,-6.4593,-6.4633,-6.4703,-6.4812,-6.4831,-6.4938,-6.4972,-6.5026,-6.5101,-6.5097,-6.5167,-6.5191,-6.5266,-6.5283,-6.5391,-6.5411,-6.5425,-6.5428,-6.5424,-6.5422,-6.545,-6.544,-6.5435,-6.5434,-6.5433,-6.5432,0,-6.4631,-6.4663,-6.4785,-6.4854,-6.4873,-6.4951,-6.5009,-6.5075,-6.5103,-6.5198,-6.5221,-6.5264,-6.5351,-6.5379,-6.5484,-6.5495,-6.5621,-6.5617,-6.5599,-6.5598,-6.5669,-6.5661,-6.5897,-6.5928,-6.5741,-6.5743,-6.5744,0,-6.4731,-6.4806,-6.4883,-6.4934,-6.4973,-6.5054,-6.5106,-6.5128,-6.5182,-6.5262,-6.5318,-6.5405,-6.5475,-6.5615,-6.5655,-6.5735,-6.5731,-6.5809,-6.5743,-6.5736,-6.5729,-6.5723,-6.573,-6.582,-6.5822,-6.5823,-6.5825,0,-6.4904,-6.4916,-6.4991,-6.5073,-6.5135,-6.52,-6.5263,-6.5304,-6.5335,-6.5396,-6.5485,-6.554,-6.5648,-6.5734,-6.5816,-6.5852,-6.5843,-6.5846,-6.5866,-6.5861,-6.5847,-6.5853,-6.5629,-6.5839,-6.5838,-6.5837,-6.5836,-6.5835,-6.5023,-6.5089,-6.5153,-6.5238,-6.5287,-6.5346,-6.5412,-6.5448,-6.5523,-6.5613,-6.5621,-6.5718,-6.578,-6.589,-6.5931,-6.6006,-6.5983,-6.6014,-6.6021,-6.6028,-6.6032,-6.5838,-6.6021,-6.6021,-6.6021,-6.602,-6.602,0,-6.5193,-6.5234,-6.5312,-6.54,-6.5466,-6.5454,-6.5523,-6.5578,-6.5663,-6.5723,-6.5793,-6.5896,-6.5979,-6.6026,-6.6109,-6.616,-6.6157,-6.618,-6.6175,-6.6183,-6.6048,-6.6021,-6.6181,-6.6181,-6.6181,-6.6181,-6.618,-6.618,-6.5289,-6.54,-6.5419,-6.5554,-6.5594,-6.5689,-6.5729,-6.5783,-6.5831,-6.5946,-6.6015,-6.6046,-6.61,-6.6187,-6.6262,-6.6274,-6.6303,-6.6329,-6.6337,-6.621,-6.6193,-6.6177,-6.6151,-6.6336,-6.6336,-6.6466,-6.6467,-6.6468]},{"header":{"parameterUnit":"m.s-1","parameterCategory":1,"la1":30.2991,"la2":30.254,"lo1":-89.0895,"lo2":-89.0444,"dy":0.0017,"dx":0.0017,"nx":28,"ny":28,"refTime":"2024-04-08T03:00:00:Z","depth":0,"parameterNumber":3,"parameterNumberName":"V-component_of_WINDS"},"data":[0,0,0,0,0,0,0,0,0,0,0,0,0,0,0,0,0,0,0,0,0,0,0,0,0,0,0,0,0,0,0,0,0,0,0,0,0,0,0,0,0,0,0,0,0,0,0,0,0,0,0,0,0,0,0,0,0,0,2.5957,2.5959,0,2.608,2.6081,2.6083,2.6149,2.6149,2.6149,2.6149,2.6273,2.6276,2.6279,0,0,0,0,0,0,0,0,0,0,0,0,0,2.578,2.5783,2.5957,2.5959,2.596,2.608,2.6081,2.6083,2.6149,2.6149,2.6149,2.615,2.6272,2.6275,2.6279,0,0,0,0,0,0,0,0,0,0,0,0,0,2.5875,2.5784,2.5957,2.6008,2.6014,2.6079,2.6081,2.6083,2.6149,2.6149,2.6149,2.615,2.627,2.6275,2.628,2.6304,0,0,2.6294,2.6296,0,0,0,0,0,0,0,0,2.587,2.5882,2.5999,2.6004,2.6011,2.6099,2.6064,2.6157,2.6149,2.6097,2.6149,2.615,2.6215,2.6224,2.6246,2.6309,2.6315,2.6294,2.6297,2.6299,2.6301,0,0,0,0,0,0,0,2.5863,2.5877,2.6006,2.6,2.6008,2.6024,2.6038,2.6082,2.6153,2.6102,2.6107,2.6121,2.6218,2.6242,2.625,2.6316,2.6294,2.6298,2.6301,2.6303,2.6407,2.6407,0,0,0,0,0,0,2.5848,2.5871,2.6002,2.6009,2.594,2.6027,2.6043,2.6071,2.6153,2.6166,2.612,2.6123,2.6233,2.6244,2.6254,2.6289,2.6299,2.6304,2.6306,2.6407,2.6407,2.6407,0,0,0,0,0,0,2.5844,2.586,2.5997,2.5942,2.596,2.603,2.6061,2.6073,2.6097,2.6167,2.618,2.6132,2.6234,2.6248,2.6291,2.6294,2.6306,2.631,2.6407,2.6407,2.6407,2.6358,0,0,0,0,0,0,2.5839,2.5858,2.5868,2.5941,2.5963,2.6032,2.6061,2.6075,2.6105,2.611,2.6181,2.6193,2.6235,2.6284,2.6296,2.6301,2.6314,2.6407,2.6407,2.6407,2.636,2.6356,2.6354,0,0,0,0,0,2.5832,2.5848,2.5868,2.5883,2.5977,2.6032,2.6045,2.6094,2.6105,2.6116,2.6161,2.619,2.6292,2.6288,2.6302,2.6308,2.6407,2.6407,2.6407,2.6361,2.6357,2.6354,0,0,0,0,0,0,2.5772,2.5859,2.5881,2.5921,2.5969,2.6043,2.6058,2.6088,2.6133,2.6135,2.6194,2.621,2.6248,2.6283,2.6277,2.6337,2.6353,2.6355,2.6313,2.631,2.6307,2.6298,2.6318,0,0,0,0,0,2.5763,2.5801,2.5875,2.5903,2.5926,2.5988,2.6014,2.6048,2.6099,2.6119,2.6168,2.6216,2.6259,2.6286,2.633,2.6365,2.6382,2.6376,2.6373,2.637,2.6372,2.6395,2.6394,2.6407,2.6407,2.6407,0,0,2.5746,2.5798,2.5818,2.5892,2.5933,2.5971,2.6004,2.6043,2.6072,2.6125,2.617,2.6207,2.6265,2.6305,2.6325,2.6335,2.6372,2.637,2.6367,2.6371,2.6395,2.6393,2.6392,2.6407,2.6407,2.6407,0,0,2.5734,2.5777,2.5806,2.5846,2.5908,2.595,2.5956,2.6027,2.6054,2.61,2.6141,2.6176,2.6248,2.6289,2.6318,2.6323,2.6352,2.6335,2.6319,2.634,2.6339,2.6339,2.6341,2.6341,2.6336,2.6336,2.6336,0,2.5704,2.5764,2.5817,2.5854,2.5885,2.5936,2.5967,2.6003,2.6075,2.6096,2.6106,2.62,2.6242,2.6293,2.6294,2.6316,2.6326,2.6327,2.6335,2.6335,2.6335,2.6338,2.6339,2.6334,2.6334,2.6334,2.6335,0,2.5725,2.5765,2.5781,2.5852,2.5885,2.5918,2.5976,2.6003,2.6035,2.6075,2.6122,2.6174,2.623,2.6245,2.6275,2.63,2.6305,2.6324,2.6341,2.6331,2.6335,2.6336,2.6331,2.6331,2.6332,2.6333,0,0,2.5678,2.5778,2.5783,2.5816,2.5889,2.5921,2.5956,2.6012,2.6035,2.6083,2.6115,2.6176,2.6195,2.6228,2.6264,2.6282,2.6284,2.63,2.6302,2.6296,2.6317,2.6302,2.6303,2.6304,2.6304,2.6304,2.6312,0,2.5678,2.5745,2.5794,2.5842,2.5881,2.593,2.5962,2.6009,2.6048,2.6086,2.6128,2.6171,2.6192,2.6213,2.6234,2.6279,2.6289,2.6279,2.6334,2.6335,2.6319,2.6305,2.629,2.6294,2.6314,2.6314,2.6314,0,2.5686,2.5734,2.5786,2.5856,2.5874,2.5901,2.5957,2.5992,2.6048,2.6074,2.6113,2.6149,2.619,2.6203,2.6259,2.6251,2.6277,2.6302,2.6304,2.6311,2.6325,2.6313,2.6297,2.6298,2.6317,2.6317,2.6317,0,2.5648,2.5725,2.5767,2.5794,2.5876,2.5894,2.5929,2.5985,2.6015,2.6063,2.6084,2.6135,2.6164,2.6203,2.6253,2.6258,2.6304,2.6321,2.6328,2.6327,2.6336,2.6335,2.6325,2.6351,2.6351,2.6351,2.6351,0,2.5643,2.5673,2.5752,2.5777,2.5813,2.5869,2.5903,2.5942,2.5991,2.6026,2.6071,2.6102,2.6166,2.6204,2.6243,2.6285,2.6297,2.632,2.633,2.6317,2.6314,2.6335,2.6336,2.6351,2.6351,2.6351,2.6351,0,2.5607,2.5661,2.571,2.5784,2.5803,2.5826,2.589,2.5917,2.5958,2.6001,2.6014,2.6079,2.6127,2.618,2.6246,2.6272,2.6312,2.6326,2.6293,2.6299,2.6303,2.6303,2.6307,2.6311,2.6332,2.6332,2.6332,0,2.5601,2.5625,2.5702,2.5729,2.5763,2.5805,2.5837,2.5893,2.5924,2.599,2.6009,2.6061,2.6106,2.618,2.6233,2.6284,2.63,2.6298,2.6308,2.6294,2.6301,2.63,2.6303,2.6295,2.6295,2.6294,2.6294,0,2.5584,2.561,2.5654,2.5708,2.5745,2.579,2.5837,2.5856,2.5922,2.5954,2.6005,2.6039,2.6107,2.6159,2.6216,2.6252,2.6284,2.629,2.6295,2.6282,2.6262,2.6274,2.6286,2.629,2.6291,2.6291,2.6291,2.6291,2.5564,2.5589,2.5647,2.5695,2.5737,2.578,2.5809,2.5855,2.5898,2.5958,2.5988,2.6039,2.6095,2.6175,2.621,2.625,2.6261,2.6267,2.6268,2.6269,2.6266,2.6255,2.6261,2.6261,2.6261,2.6261,2.6261,0,2.5551,2.5591,2.5635,2.57,2.5738,2.5765,2.5819,2.5849,2.5893,2.5942,2.5986,2.6044,2.6094,2.6151,2.6205,2.6226,2.6242,2.6238,2.6238,2.6246,2.6253,2.6245,2.6224,2.6224,2.6224,2.6224,2.6224,2.6224,2.5548,2.5593,2.5625,2.569,2.573,2.5781,2.5809,2.5849,2.5889,2.5953,2.5995,2.6032,2.6085,2.6143,2.619,2.6206,2.6224,2.6216,2.6235,2.6242,2.6245,2.6248,2.624,2.6219,2.6219,2.6225,2.6225,2.6225]}]]